User: anonymous   Login
Location: Kitchener
(43.4500°N, 80.5000°W)
Time: 03:04:41
(UTC-04:00)
Language:

Cosmos 1939 Rocket - Orbit

View from above orbital plane
View from above orbital plane
View from above satellite
View from above satellite

Ground track
Ground track

The orbit data is extracted from the following two-line orbital elements,

1 19046U 88032B   16269.14169159  .00000568  00000-0  47176-4 0  9999
2 19046  97.5743 317.1075 0041412 151.1814 209.1711 15.02035944532851
Epoch (UTC): 25 September 2016 03:24:02
Eccentricity: 0.0041412
inclination: 97.5743°
perigee height: 532 km
apogee height: 589 km
right ascension of ascending node: 317.1075°
argument of perigee: 151.1814°
revolutions per day: 15.02035944
mean anomaly at epoch: 209.1711°
orbit number at epoch: 53285

The dashed part of the orbit path shows where the satellite is in the earth's shadow,  

DLR